Location: Buch
(50.1863°N, 11.0141°E)
Time: 20:05:47
(UTC+00:00)

Cosmos 2322 Rocket - Pass Details

Date: 18 January 2020
Orbit: 831 x 852 km, 71.0° (Epoch: 16 February)

Event Time Altitude Azimuth Distance (km) Brightness Sun altitude
Rises 06:05:20 0° 190° (S) 3,382 5.5 -9.7°
Reaches altitude 10° 06:07:48 10° 186° (S) 2,455 4.8 -9.3°
Maximum altitude 06:13:15 52° 111° (ESE) 1,045 3.2 -8.5°
Drops below altitude 10° 06:18:46 10° 37° (NE) 2,485 4.8 -7.7°
Sets 06:21:16 0° 32° (NNE) 3,427 5.5 -7.4°
